Weather History for KCMX - January, 2014

Change the Weather History Date:

Saturday, January 11, 2014

  Actual Average Record
Temperature  
Mean Temperature 28 °F -  
Max Temperature 30 °F 21 °F 40 °F (1986)
Min Temperature 26 °F 7 °F -15 °F (1979)
Degree Days  
Heating Degree Days 37    
Moisture  
Dew Point 24 °F    
Average Humidity 86    
Maximum Humidity 93    
Minimum Humidity 78    
Precipitation  
Precipitation 0.11 in - - ()
Sea Level Pressure  
Sea Level Pressure 29.39 in    
Wind  
Wind Speed 9 mph (WNW)    
Max Wind Speed 23 mph    
Max Gust Speed 29 mph    
Visibility 5 miles    
Events Snow    
Averages and records for this station are not official NWS values.
T = Trace of Precipitation, MM = Missing Value Source: NWS Daily Summary

Daily Weather History Graph

Daily Weather History Graph

Search for Another Location

Airport or City:

Trip Planner

Search our weather history database for the weather conditions in past years. The results will help you decide how hot, cold, wet, or windy it might be!

Date:

Astronomy

Jan. 11, 2014 Rise Set
Actual Time 8:38 AM EST 5:26 PM EST
Civil Twilight 8:03 AM EST 6:00 PM EST
Nautical Twilight 7:25 AM EST 6:39 PM EST
Astronomical Twilight 6:48 AM EST 7:15 PM EST
Moon 2:13 PM EST (1/11) 4:39 AM EST (1/11)
Length of Visible Light 9h 57m
Length of Day
8h 48m
Waxing Gibbous, 83% of the Moon is Illuminated
Jan 11
Waxing Gibbous
Jan 15
Full
Jan 24
Last Quarter
Jan 30
New
Feb 6
First Quarter

Hourly Weather History & Observations

Time (EST) Temp. Windchill Dew Point Humidity Pressure Visibility Wind Dir Wind Speed Gust Speed Precip Events Conditions
12:05 AM 26.6 °F 22.6 °F 24.8 °F 93% 29.47 in 1.0 mi ENE 3.5 mph - 0.00 in Snow Light Snow
12:25 AM 26.6 °F 21.2 °F 24.8 °F 93% 29.46 in 0.8 mi ENE 4.6 mph - 0.01 in Snow Light Snow
12:35 AM 26.6 °F 20.0 °F 24.8 °F 93% 29.45 in 1.0 mi ENE 5.8 mph - 0.01 in Snow Light Snow
12:53 AM 27.0 °F 21.6 °F 24.1 °F 89% 29.47 in 1.5 mi ENE 4.6 mph - 0.01 in Snow Light Snow
1:53 AM 27.0 °F - 24.1 °F 89% 29.44 in 1.2 mi Calm Calm - 0.02 in Snow Light Snow
2:26 AM 26.6 °F - 24.8 °F 93% 29.39 in 0.8 mi Calm Calm - 0.01 in Snow Light Snow
2:45 AM 28.4 °F - 24.8 °F 86% 29.39 in 0.8 mi Calm Calm - 0.02 in Snow Light Snow
2:53 AM 27.0 °F - 24.1 °F 89% 29.43 in 0.8 mi Calm Calm - 0.03 in Snow Light Snow
3:05 AM 26.6 °F - 24.8 °F 93% 29.39 in 1.0 mi Calm Calm - 0.00 in Snow Light Snow
3:13 AM 26.6 °F - 24.8 °F 93% 29.38 in 0.8 mi Calm Calm - 0.01 in Snow Light Snow
3:26 AM 26.6 °F - 24.8 °F 93% 29.38 in 0.8 mi Calm Calm - 0.02 in Snow Light Snow
3:36 AM 26.6 °F - 24.8 °F 93% 29.37 in 1.0 mi Calm Calm - 0.02 in Snow Light Snow
3:53 AM 26.1 °F - 23.0 °F 88% 29.42 in 1.0 mi Calm Calm - 0.03 in Snow Light Snow
4:50 AM 26.6 °F 19.1 °F 23.0 °F 86% 29.34 in 2.0 mi WNW 6.9 mph - 0.01 in Snow Light Snow
4:53 AM 26.1 °F 18.4 °F 23.0 °F 88% 29.39 in 2.0 mi NW 6.9 mph - 0.01 in Snow Light Snow
5:04 AM 26.6 °F 19.1 °F 23.0 °F 86% 29.34 in 2.0 mi NW 6.9 mph - 0.00 in Snow Light Snow
5:14 AM 26.6 °F 18.2 °F 24.8 °F 93% 29.34 in 1.5 mi WNW 8.1 mph - 0.00 in Snow Light Snow
5:35 AM 26.6 °F 17.5 °F 24.8 °F 93% 29.33 in 2.5 mi WNW 9.2 mph - 0.00 in Snow Light Snow
5:53 AM 27.0 °F 18.0 °F 24.1 °F 89% 29.37 in 1.5 mi WNW 9.2 mph - 0.00 in Snow Light Snow
5:59 AM 26.6 °F 17.5 °F 24.8 °F 93% 29.33 in 1.5 mi WNW 9.2 mph - 0.00 in Snow Light Snow
6:22 AM 26.6 °F 17.5 °F 24.8 °F 93% 29.32 in 1.2 mi WNW 9.2 mph - 0.00 in Snow Light Snow
6:53 AM 27.0 °F 19.5 °F 24.1 °F 89% 29.36 in 1.2 mi West 6.9 mph - 0.00 in Snow Light Snow
7:11 AM 28.4 °F 19.7 °F 24.8 °F 86% 29.32 in 2.0 mi WNW 9.2 mph - 0.00 in Snow Light Snow
7:31 AM 28.4 °F 18.0 °F 24.8 °F 86% 29.32 in 1.8 mi WNW 12.7 mph - 0.01 in Snow Light Snow
7:53 AM 28.0 °F 18.1 °F 25.0 °F 88% 29.36 in 3.0 mi WNW 11.5 mph - 0.01 in Snow Light Snow
8:49 AM 28.4 °F 18.5 °F 24.8 °F 86% 29.31 in 7.0 mi WNW 11.5 mph - 0.00 in   Overcast
8:53 AM 28.9 °F 19.8 °F 25.0 °F 85% 29.36 in 7.0 mi WNW 10.4 mph - 0.00 in   Overcast
9:15 AM 28.4 °F 17.5 °F 24.8 °F 86% 29.32 in 7.0 mi WNW 13.8 mph - N/A   Overcast
9:22 AM 28.4 °F 17.5 °F 24.8 °F 86% 29.32 in 6.0 mi WNW 13.8 mph - N/A   Overcast
9:53 AM 28.9 °F 17.3 °F 25.0 °F 85% 29.37 in 7.0 mi WNW 16.1 mph - N/A   Overcast
10:53 AM 28.9 °F 16.1 °F 25.0 °F 85% 29.37 in 5.0 mi WNW 19.6 mph - N/A   Overcast
11:25 AM 28.4 °F 15.8 °F 24.8 °F 86% 29.33 in 5.0 mi WNW 18.4 mph - N/A   Overcast
11:53 AM 28.9 °F 15.8 °F 25.0 °F 85% 29.37 in 3.0 mi WNW 20.7 mph - N/A   Overcast
12:12 PM 28.4 °F 15.4 °F 24.8 °F 86% 29.33 in 3.0 mi WNW 19.6 mph - N/A   Overcast
12:53 PM 28.9 °F 16.5 °F 25.0 °F 85% 29.36 in 4.0 mi WNW 18.4 mph - N/A   Overcast
1:11 PM 28.4 °F 15.8 °F 24.8 °F 86% 29.31 in 8.0 mi WNW 18.4 mph - N/A   Overcast
1:53 PM 28.9 °F 16.1 °F 24.1 °F 82% 29.36 in 9.0 mi WNW 19.6 mph - N/A   Overcast
2:46 PM 28.4 °F 16.2 °F 24.8 °F 86% 29.32 in 4.0 mi West 17.3 mph 23.0 mph 0.00 in   Overcast
2:53 PM 28.9 °F 16.9 °F 25.0 °F 85% 29.36 in 6.0 mi WNW 17.3 mph - 0.00 in   Overcast
3:36 PM 28.4 °F 16.6 °F 24.8 °F 86% 29.33 in 9.0 mi West 16.1 mph - N/A   Overcast
3:51 PM 28.4 °F 16.6 °F 24.8 °F 86% 29.33 in 8.0 mi WNW 16.1 mph - N/A   Overcast
3:53 PM 28.9 °F 17.7 °F 25.0 °F 85% 29.38 in 8.0 mi West 15.0 mph - N/A   Overcast
4:53 PM 30.0 °F 18.3 °F 25.0 °F 82% 29.41 in 5.0 mi WNW 17.3 mph 28.8 mph N/A   Haze
5:53 PM 30.0 °F 19.1 °F 25.0 °F 82% 29.43 in 8.0 mi WNW 15.0 mph - N/A   Overcast
6:16 PM 30.2 °F 17.8 °F 24.8 °F 80% 29.40 in 8.0 mi WNW 19.6 mph 26.5 mph N/A   Overcast
6:27 PM 30.2 °F 18.9 °F 24.8 °F 80% 29.41 in 9.0 mi WNW 16.1 mph 24.2 mph N/A   Overcast
6:36 PM 30.2 °F 18.5 °F 24.8 °F 80% 29.41 in 10.0 mi WNW 17.3 mph 26.5 mph N/A   Overcast
6:53 PM 30.0 °F 17.9 °F 24.1 °F 79% 29.46 in 10.0 mi WNW 18.4 mph - N/A   Overcast
7:12 PM 30.2 °F 18.5 °F 24.8 °F 80% 29.42 in 9.0 mi WNW 17.3 mph 25.3 mph N/A   Overcast
7:25 PM 30.2 °F 18.5 °F 24.8 °F 80% 29.42 in 10.0 mi WNW 17.3 mph 24.2 mph N/A   Overcast
7:46 PM 28.4 °F 15.4 °F 23.0 °F 80% 29.42 in 10.0 mi WNW 19.6 mph 27.6 mph N/A   Overcast
7:53 PM 28.9 °F 15.8 °F 24.1 °F 82% 29.46 in 10.0 mi WNW 20.7 mph - N/A   Overcast
8:06 PM 28.4 °F 15.8 °F 24.8 °F 86% 29.43 in 10.0 mi West 18.4 mph - N/A   Overcast
8:53 PM 28.9 °F 16.5 °F 24.1 °F 82% 29.49 in 10.0 mi WNW 18.4 mph 27.6 mph N/A   Overcast
9:53 PM 28.9 °F 17.3 °F 23.0 °F 78% 29.50 in 10.0 mi West 16.1 mph - N/A   Overcast
10:22 PM 28.4 °F 16.2 °F 23.0 °F 80% 29.47 in 10.0 mi WNW 17.3 mph 26.5 mph N/A   Overcast
10:53 PM 28.0 °F 16.5 °F 23.0 °F 81% 29.52 in 10.0 mi WNW 15.0 mph - N/A   Overcast
11:51 PM 26.6 °F 12.4 °F 21.2 °F 80% 29.48 in 9.0 mi WNW 21.9 mph 28.8 mph N/A   Overcast
11:53 PM 27.0 °F 12.5 °F 21.9 °F 81% 29.52 in 9.0 mi WNW 23.0 mph - N/A   Overcast